TimeMST,TemperatureF,Dew PointF,Humidity,Sea Level PressureIn,VisibilityMPH,Wind Direction,Wind SpeedMPH,Gust SpeedMPH,PrecipitationIn,Events,Conditions,WindDirDegrees,DateUTC
12:53 AM,21.9,12.9,68,30.19,10.0,North,8.1,-,N/A,,Clear,360,2013-12-16 07:53:00
1:53 AM,17.1,10.0,74,30.22,10.0,NE,8.1,-,N/A,,Clear,50,2013-12-16 08:53:00
2:53 AM,24.1,10.0,55,30.17,10.0,NNE,9.2,-,N/A,,Clear,20,2013-12-16 09:53:00
3:53 AM,19.0,10.0,68,30.20,10.0,ENE,8.1,-,N/A,,Clear,60,2013-12-16 10:53:00
4:53 AM,21.0,10.0,63,30.24,10.0,Variable,6.9,-,N/A,,Clear,0,2013-12-16 11:53:00
5:53 AM,19.9,9.0,62,30.26,10.0,NE,11.5,-,N/A,,Clear,40,2013-12-16 12:53:00
6:53 AM,21.0,9.0,60,30.30,10.0,NE,10.4,-,N/A,,Clear,50,2013-12-16 13:53:00
7:53 AM,26.1,10.9,53,30.28,10.0,ENE,8.1,-,N/A,,Clear,60,2013-12-16 14:53:00
8:53 AM,33.1,16.0,50,30.30,10.0,NE,6.9,-,N/A,,Clear,40,2013-12-16 15:53:00
9:53 AM,44.1,18.0,35,30.27,10.0,NNE,4.6,-,N/A,,Clear,20,2013-12-16 16:53:00
10:53 AM,55.9,12.0,18,30.22,10.0,Calm,Calm,-,N/A,,Clear,0,2013-12-16 17:53:00
11:53 AM,57.9,10.9,16,30.17,10.0,SSE,3.5,-,N/A,,Clear,150,2013-12-16 18:53:00
12:53 PM,60.1,10.9,14,30.14,10.0,East,5.8,-,N/A,,Clear,100,2013-12-16 19:53:00
1:53 PM,62.1,10.0,13,30.14,10.0,SSE,3.5,-,N/A,,Clear,160,2013-12-16 20:53:00
2:53 PM,61.0,10.9,14,30.13,10.0,SW,9.2,-,N/A,,Clear,220,2013-12-16 21:53:00
3:53 PM,57.0,10.0,15,30.18,10.0,SW,6.9,-,N/A,,Clear,220,2013-12-16 22:53:00
4:53 PM,50.0,10.0,20,30.21,10.0,WSW,5.8,-,N/A,,Clear,250,2013-12-16 23:53:00
5:53 PM,39.9,12.9,33,30.27,10.0,NW,4.6,-,N/A,,Clear,320,2013-12-17 00:53:00
6:53 PM,37.0,12.9,37,30.29,10.0,Calm,Calm,-,N/A,,Clear,0,2013-12-17 01:53:00
7:53 PM,32.0,14.0,48,30.32,10.0,North,10.4,-,N/A,,Clear,360,2013-12-17 02:53:00
8:53 PM,30.0,12.9,49,30.30,10.0,ENE,4.6,-,N/A,,Clear,70,2013-12-17 03:53:00
9:53 PM,30.0,15.1,54,30.27,10.0,East,8.1,-,N/A,,Clear,80,2013-12-17 04:53:00
10:53 PM,28.0,14.0,56,30.25,10.0,NE,5.8,-,N/A,,Clear,50,2013-12-17 05:53:00
11:53 PM,23.0,12.9,65,30.25,10.0,NNE,8.1,-,N/A,,Clear,20,2013-12-17 06:53:00